FW4518 Weather Reports


time (UTC)temp
C
wind
direction
speed
KPH
gust
KPH
rain 1hr
cm
rain 24hr
cm
rain mn
cm
humidity
%
barometer
mb
20260504081636 8 0.0 0.0 0.00 0.00 0.00 75 1012.8
20260504080636 8 0.0 0.0 0.00 0.00 0.00 75 1012.8
20260504050636 17 0.0 0.0 0.00 0.00 0.00 56 1012.1
20260504045636 18 0.0 3.2 0.00 0.00 0.00 49 1012.0
20260504044656 18 355 1.6 4.8 0.00 0.00 0.00 47 1011.9
20260504043638 18 15 3.2 4.8 0.00 0.00 0.00 47 1011.9
20260504042636 17 4 1.6 9.7 0.00 0.00 0.00 51 1011.8
20260504041636 18 0.0 0.0 0.00 0.00 0.00 50 1011.8
20260504040636 19 0.0 0.0 0.00 0.00 0.00 47 1011.6
20260504035636 20 7 1.6 6.4 0.00 0.00 0.00 46 1011.5
20260504034637 20 32 1.6 11.3 0.00 0.00 0.00 45 1011.5
20260504033637 20 347 6.4 11.3 0.00 0.00 0.00 44 1011.3
20260504032636 21 7 6.4 12.9 0.00 0.00 0.00 43 1011.2
20260504031636 21 36 9.7 17.7 0.00 0.00 0.00 43 1011.2
20260504030637 22 16 9.7 16.1 0.00 0.00 0.00 42 1011.1
20260504025637 22 9 9.7 14.5 0.00 0.00 0.00 41 1011.0
20260504024636 23 18 9.7 16.1 0.00 0.00 0.00 40 1010.9
20260504023637 23 23 11.3 24.1 0.00 0.00 0.00 39 1010.8
20260504022636 24 20 11.3 19.3 0.00 0.00 0.00 39 1010.8
20260504021637 25 22 11.3 24.1 0.00 0.00 0.00 38 1010.8
20260504020636 25 24 11.3 22.5 0.00 0.00 0.00 37 1010.8
20260504015637 25 32 11.3 17.7 0.00 0.00 0.00 36 1010.8
20260504014637 25 359 8.0 16.1 0.00 0.00 0.00 37 1010.8
20260504013637 26 8 12.9 19.3 0.00 0.00 0.00 37 1010.8
20260504012657 26 17 12.9 25.7 0.00 0.00 0.00 36 1010.8
20260504011637 26 13 12.9 22.5 0.00 0.00 0.00 35 1010.8
20260504010637 26 16 16.1 25.7 0.00 0.00 0.00 36 1010.9
20260504005637 26 34 12.9 20.9 0.00 0.00 0.00 36 1010.9
20260504004637 27 349 11.3 20.9 0.00 0.00 0.00 35 1010.9
20260504003637 26 345 12.9 19.3 0.00 0.05 0.00 35 1010.9
20260504002637 27 25 12.9 25.7 0.00 0.18 0.00 34 1010.9
20260504001637 27 39 14.5 27.4 0.00 0.18 0.00 35 1010.9
20260504000637 27 54 12.9 20.9 0.00 0.18 0.00 35 1011.0
20260503235637 27 10 12.9 22.5 0.00 0.18 0.00 35 1011.0
20260503234637 27 339 12.9 24.1 0.00 0.18 0.00 35 1011.1
20260503233637 27 37 4.8 11.3 0.00 0.18 0.00 36 1011.2
20260503232637 27 16 12.9 27.4 0.00 0.18 0.00 35 1011.4
20260503231637 27 325 12.9 19.3 0.00 0.18 0.00 34 1011.4
20260503230658 27 358 11.3 22.5 0.00 0.18 0.00 34 1011.6
20260503225637 27 20 6.4 20.9 0.00 0.18 0.00 34 1011.8
20260503224638 27 296 11.3 20.9 0.00 0.18 0.00 35 1011.9
20260503223637 27 322 9.7 19.3 0.00 0.18 0.00 36 1012.2
20260503222637 27 15 11.3 19.3 0.00 0.18 0.00 37 1012.3
20260503221637 27 339 14.5 27.4 0.00 0.18 0.00 38 1012.4
20260503220637 26 22 12.9 24.1 0.00 0.18 0.00 39 1012.6
20260503215637 27 7 9.7 17.7 0.00 0.18 0.00 38 1012.7
20260503214638 27 32 11.3 20.9 0.00 0.18 0.00 38 1012.8
20260503213639 26 23 12.9 22.5 0.00 0.18 0.00 40 1013.0
20260503212637 26 28 11.3 20.9 0.00 0.18 0.00 41 1013.1
20260503211637 26 55 9.7 17.7 0.00 0.18 0.00 40 1013.2
20260503210637 26 356 6.4 16.1 0.00 0.18 0.00 41 1013.4
20260503205637 26 45 11.3 19.3 0.00 0.18 0.00 42 1013.5
20260503204637 25 307 11.3 17.7 0.00 0.18 0.00 43 1013.6
20260503203657 26 41 4.8 12.9 0.00 0.18 0.00 42 1013.7
20260503202637 26 12 8.0 16.1 0.00 0.18 0.00 43 1013.8
20260503201637 25 44 4.8 16.1 0.00 0.18 0.00 45 1013.9
20260503200637 25 260 6.4 14.5 0.00 0.18 0.00 46 1014.1
20260503195639 25 136 3.2 14.5 0.00 0.18 0.00 46 1014.2
20260503194637 25 350 8.0 12.9 0.00 0.18 0.00 46 1014.4
20260503193637 24 14 6.4 16.1 0.00 0.18 0.00 46 1014.5
20260503192637 24 2 3.2 14.5 0.00 0.18 0.00 47 1014.7
20260503191638 23 345 3.2 11.3 0.00 0.18 0.00 47 1014.8
20260503190638 23 35 3.2 12.9 0.00 0.18 0.00 47 1015.0
20260503185637 23 6 1.6 12.9 0.00 0.18 0.00 50 1015.2
20260503184637 22 359 3.2 11.3 0.00 0.18 0.00 50 1015.3
20260503183637 21 26 3.2 11.3 0.00 0.18 0.00 53 1015.5
20260503182638 21 263 3.2 11.3 0.00 0.18 0.00 53 1015.7
20260503181638 21 350 4.8 11.3 0.00 0.18 0.00 55 1015.8
20260503180637 21 60 6.4 11.3 0.00 0.18 0.00 55 1015.9
20260503175657 20 355 3.2 9.7 0.00 0.18 0.00 56 1016.1
20260503174638 20 191 4.8 9.7 0.00 0.18 0.00 56 1016.1
20260503173638 19 341 3.2 9.7 0.00 0.18 0.00 57 1016.1
20260503172637 18 23 4.8 11.3 0.00 0.18 0.00 57 1016.2
20260503171637 18 9 0.0 4.8 0.00 0.18 0.00 57 1016.2
20260503170638 17 13 1.6 4.8 0.00 0.18 0.00 58 1016.4
20260503150638 11 180 8.0 11.3 0.00 0.18 0.00 81 1016.9
20260503130638 5 0.0 0.0 0.00 0.18 0.00 100 1016.8
20260503110638 6 0.0 0.0 0.00 0.18 0.00 100 1016.7